Torna al catalogo

FENGYUN 1C DEB

LostPO
NORAD 38723·DEBRIS·🇨🇳 China

Lanciato May 10, 1999 da Taiyuan Satellite Launch Center

Loading…

Prossimi Passaggi (prossime 24 ore)

TLE

ObsoletoSource: Space-Track

Epoca: Aug 25, 2022, 14:25 UTC

1 38723U 99025ETQ 22237.60079847  .00001778  00000-0  63838-3 0  9999
2 38723  99.4651  17.4308 0040806 309.4857  50.2719 14.34860358598475

Traccia FENGYUN 1C DEB in tempo reale con AllMySat

Download on the App Store